Regional Weather Roundup
Issued by NWS

Home | Current Version | Previous Version | Text Only | Print | Product List | Glossary Off
Versions: 1 2 3 4 5 6 7 8 9 10 11 12 13 14 15 16 17 18 19 20 21 22 23 24 25 26 27 28 29 30 31 32 33 34 35 36 37 38 39 40 41 42 43 44 45 46 47 48 49 50

293
ASUS43 KIND 281409
RWRIN

WEATHER ROUNDUP FOR INDIANA
NATIONAL WEATHER SERVICE INDIANAPOLIS IN
1000 AM EDT FRI JUL 28 2017

NOTE: "FAIR" INDICATES FEW OR NO CLOUDS BELOW 12,000 FEET WITH NO
SIGNIFICANT WEATHER AND/OR OBSTRUCTIONS TO VISIBILITY.

* - STATION DOES NOT REPORT WEATHER SUCH AS PRECIPITATION OR FOG.

+ - STATION NOT QUALITY CONTROLLED BY THE NATIONAL WEATHER SERVICE.
    USE DATA WITH CAUTION...ESPECIALLY DEWPOINT AND RELATIVE
    HUMIDITY OBSERVATIONS.

INZ001>003-010>013-019-020-281500-
NORTHWEST INDIANA

CITY           SKY/WX    TMP DP  RH WIND       PRES   REMARKS
GARY /AIRPORT/ PTSUNNY   73  64  73 N14       29.98R
KNOX *+        PTSUNNY   68  63  83 E7        29.95S
LA PORTE +     MOSUNNY   71  63  76 NE10      29.98R
MICHIGAN CITY+ SUNNY     72  61  68 NE7       29.97S
MONTICELLO +   CLOUDY    70  65  82 E7        29.92S
RENSSELAER +   CLOUDY    70  63  78 NE10      29.94S
VALPARAISO     SUNNY     74  65  73 NE9       29.97R

$$

LMZ046-743>745-281500-
SOUTHERN LAKE MICHIGAN

STATION/POSITION TIME  TEMP    WIND        PRES    WAVE
                       AIR SEA DIR/SP/G            HT
                 (UTC) (F)     (DEG/KT/KT) (MB)    (FT)
BURNS HARBOR     1340   71      30/ 18/ 20 1015.2R
MICHIGAN CITY    1340   68      20/ 20/ 21   N/A
5NW MICH CITY    1400   69 73   40/ 14/ 17   N/A     4

$$

INZ004-005-014>016-021>024-281500-
NORTH CENTRAL INDIANA

CITY           SKY/WX    TMP DP  RH WIND       PRES   REMARKS
ELKHART        PTSUNNY   68  61  77 NE12      29.97R
GOSHEN         CLOUDY    66  60  81 NE7       29.95F
LOGANSPORT +   CLOUDY    70  61  73 NE7       29.93F
PERU/GRISSOM   MOSUNNY   70  63  79 NE9       29.91S
ROCHESTER +    PTSUNNY   68  63  83 NE7       29.95R
SOUTH BEND     MOSUNNY   70  63  78 NE12      29.97R
WARSAW +       CLOUDY    66  63  88 NE6       29.95R

$$

INZ006>009-017-018-025>027-281500-
NORTHEAST INDIANA

CITY           SKY/WX    TMP DP  RH WIND       PRES   REMARKS
AUBURN +       CLOUDY    66  61  82 NE6       29.95S
FORT WAYNE     LGT RAIN  67  61  81 NE8       29.93F
HUNTINGTON +   CLOUDY    66  63  89 N5        29.94S
KENDALLVILLE + CLOUDY    65  63  91 N8        29.96S

$$

INZ028-029-035-036-043>045-051>053-281500-
WEST CENTRAL INDIANA

CITY           SKY/WX    TMP DP  RH WIND       PRES   REMARKS
GREENCASTLE +  CLOUDY    73  72  94 NE7       29.88S
LAFAYETTE      CLOUDY    71  67  87 NE12      29.91S
TERRE HAUTE    CLOUDY    73  69  87 VRB6      29.87S

$$

INZ030>032-037>040-046>048-054>057-064-065-281500-
CENTRAL INDIANA

CITY           SKY/WX    TMP DP  RH WIND       PRES   REMARKS
ANDERSON       PTSUNNY   73  66  78 MISG      29.91S
CP ATTERBURY + CLOUDY    73  70  88 NE8       29.87R
COLUMBUS       CLOUDY    73  70  88 NE9       29.86R
FRANKFORT +    PTSUNNY   74  68  80 E9        29.93S
GREENWOOD *+   PTSUNNY  N/A N/A N/A E9        29.88S
INDIANAPOLIS   CLOUDY    74  70  87 NE12      29.88R
-EAGLE CREEK   PTSUNNY   75  68  78 NE12      29.88R
KOKOMO +       MOSUNNY   72  65  78 NE12      29.94R
MARION +       PTSUNNY   70  63  78 NE8       29.93S
MT COMFORT *+  PTSUNNY   73  68  83 NE10      29.89S
SHELBYVILLE    CLOUDY    75  69  81 NE9       29.87R
ZIONSVILLE +   PTSUNNY   71  67  87 NE10      29.91S

$$

INZ033-034-041-042-049-050-058-059-281500-
EAST CENTRAL INDIANA

CITY           SKY/WX    TMP DP  RH WIND       PRES   REMARKS
MUNCIE         PTSUNNY   74  66  76 E7        29.91R
RICHMOND +     CLOUDY    70  66  88 NE8       29.90S

$$

INZ060-061-067>069-081>083-085>088-281500-
SOUTHWEST INDIANA

CITY           SKY/WX    TMP DP  RH WIND       PRES   REMARKS
EVANSVILLE     CLOUDY    76  73  91 N7        29.85R FOG
HUNTINGBURG *+ CLOUDY    77  74  90 N8        29.84R

$$

INZ062-063-066-070>080-084-089>092-281500-
SOUTH CENTRAL AND SOUTHEAST INDIANA

CITY           SKY/WX    TMP DP  RH WIND       PRES   REMARKS
BEDFORD +      CLOUDY    75  72  88 CALM      29.84R
BLOOMINGTON    CLOUDY    77  71  82 NE10      29.85S
MADISON *+     CLOUDY    73  72  94 NE8       29.86R
NORTH VERNON + CLOUDY    73  70  88 NE10      29.85S
SEYMOUR +      CLOUDY    77  73  88 NE6       29.83S

$$





USA.gov is the U.S. government's official web portal to all federal, state and local government web resources and services.